sat.trackr.live / text

‹ back to catalog

2025-055C

NORAD 63293 · 2025-055C

PAYLOAD ACTIVE UNKNOWN

§ Identity

Operator
Country
PRC
Launch date
2025-03-17
Launch site
JSC
Launch vehicle
Mass (kg)
RCS (m²)

External: N2YO · Heavens-Above · Gunter

§ Orbital elements

Epoch: 2026-09-22T21:52:04.378656Z

Period
95.29 min
Inclination
97.6635°
Eccentricity
0.0042231
Mean motion
15.11237323 rev/d
Perigee alt
503.2 km
Apogee alt
561.6 km
Semi-major
6,910.6 km
B*
3.0610e-4
RAAN
46.6604°
Arg perigee
164.0483°
Mean anomaly
196.2088°
Rev number
8,382

§ Raw data

2025-055C1 63293U 25055C   26265.91116179  .00005188  00000+0  30610-3 0  99902 63293  97.6635  46.6604 0042231 164.0483 196.2088 15.11237323 83828

JSON: /api/v1/satellites/63293 · /tle

For live sub-satellite position, see the globe view (requires WebGL).

§ Visibility from observer

Set your observer location to see the next 7 days of passes ≥ 10°. The values pass through the URL so the page stays shareable.

No JS? Fill the form by hand. The geolocation button needs JavaScript.